Weather History for Mackay Mo, QU

Change the Weather History Date:

Saturday, November 30, 2013

  Actual Average Record
Temperature  
Mean Temperature 82 °F -  
Max Temperature 89 °F - - ()
Min Temperature 74 °F - - ()
Cooling Degree Days 16    
Growing Degree Days 32 (Base 50)    
Moisture  
Dew Point 72 °F    
Average Humidity 73    
Maximum Humidity 89    
Minimum Humidity 53    
Precipitation  
Precipitation 0.04 in - - ()
Sea Level Pressure  
Sea Level Pressure 29.82 in    
Wind  
Wind Speed 7 mph ()    
Max Wind Speed 15 mph    
Max Gust Speed -    
Visibility 7.0 miles    
Events Thunderstorm    
T = Trace of Precipitation, MM = Missing Value Source: Averaged Metar Reports

Daily Weather History Graph

Daily Weather History Graph

Search for Another Location

Airport:

Trip Planner

Search our weather history database for the weather conditions in past years. The results will help you decide how hot, cold, wet, or windy it might be!

Date:

Astronomy

Nov. 30, 2013 Rise Set
Actual Time 5:12 AM AEST 6:31 PM AEST
Civil Twilight 4:48 AM AEST 6:55 PM AEST
Nautical Twilight 4:19 AM AEST 7:24 PM AEST
Astronomical Twilight 3:49 AM AEST 7:54 PM AEST
Moon 2:38 AM AEST (11/30) 3:39 PM AEST (11/30)
Length of Visible Light 14h 07m
Length of Day
13h 18m
Waning Crescent, 11% of the Moon is Illuminated
Nov 30
Waning Crescent
Dec 3
New
Dec 10
First Quarter
Dec 17
Full
Dec 25
Last Quarter

Hourly Weather History & Observations

Time (AEST) Temp. Heat Index Dew Point Humidity Pressure Visibility Wind Dir Wind Speed Gust Speed Precip Events Conditions
12:00 AM 78 °F - 69 °F 67% 29.82 in - NNW 6.9 mph - -   Overcast
12:00 AM 77.0 °F - 71.6 °F 83% 29.83 in 6.2 mi NW 6.9 mph - N/A   Mostly Cloudy
1:00 AM 77 °F - 70 °F 73% 29.80 in - WNW 5.8 mph - -  
1:00 AM 77.0 °F - 69.8 °F 78% 29.80 in 6.2 mi West 3.5 mph - N/A   Unknown
2:00 AM 75.2 °F - 71.6 °F 89% 29.77 in 6.2 mi West 4.6 mph - N/A   Unknown
3:00 AM 75 °F - 69 °F 77% 29.78 in - NNW 4.6 mph - -  
3:00 AM 75.2 °F - 69.8 °F 83% 29.77 in 6.2 mi NNW 4.6 mph - N/A   Unknown
4:00 AM 75 °F - 70 °F 80% 29.78 in - NNW 5.8 mph - -  
4:00 AM 75.2 °F - 69.8 °F 83% 29.77 in 6.2 mi NNW 4.6 mph - N/A   Scattered Clouds
5:00 AM 75.2 °F - 69.8 °F 83% 29.80 in 6.2 mi West 4.6 mph - N/A   Scattered Clouds
6:00 AM 76 °F - 71 °F 80% 29.82 in 12 mi NW 4.6 mph - -   Partly Cloudy
6:00 AM 75.2 °F - 71.6 °F 89% 29.83 in 6.2 mi NW 4.6 mph - N/A   Unknown
7:00 AM 80 °F - 72 °F 71% 29.84 in - NNW 5.8 mph - -  
7:00 AM 78.8 °F - 71.6 °F 78% 29.83 in 6.2 mi WNW 6.9 mph - N/A   Unknown
8:00 AM 82.4 °F 87.2 °F 71.6 °F 70% 29.86 in 6.2 mi NNW 11.5 mph - N/A   Scattered Clouds
9:00 AM 84 °F - 73 °F 61% 29.85 in 12 mi North 9.2 mph - -   Partly Cloudy
9:00 AM 84.2 °F 89.6 °F 71.6 °F 66% 29.86 in 6.2 mi NNW 10.4 mph - N/A   Mostly Cloudy
10:00 AM 86 °F - 73 °F 58% 29.83 in - North 10.4 mph - -  
10:00 AM 87.8 °F 93.8 °F 71.6 °F 58% 29.83 in 6.2 mi NNW 8.1 mph - N/A   Mostly Cloudy
11:00 AM 87.8 °F 93.8 °F 71.6 °F 58% 29.80 in 6.2 mi NW 8.1 mph - N/A   Scattered Clouds
12:00 PM 89 °F - 74 °F 53% 29.80 in 12 mi North 9.2 mph - -   Partly Cloudy
12:00 PM 87.8 °F 95.6 °F 73.4 °F 62% 29.80 in 6.2 mi North 12.7 mph - N/A   Unknown
1:00 PM 89 °F - 75 °F 55% 29.79 in - NNE 10.4 mph - -  
1:00 PM 87.8 °F 95.6 °F 73.4 °F 62% 29.80 in 6.2 mi NNE 13.8 mph - N/A   Scattered Clouds
2:00 PM 87.8 °F 97.6 °F 75.2 °F 66% 29.77 in 6.2 mi NNE 13.8 mph - N/A   Scattered Clouds
3:00 PM 85 °F - 74 °F 63% 29.76 in 12 mi NNE 12.7 mph - - Thunderstorm Thunderstorm
3:00 PM 86.0 °F 93.4 °F 73.4 °F 66% 29.77 in 6.2 mi NNE 15.0 mph - N/A   Unknown
4:00 PM 82 °F - 74 °F 72% 29.77 in - North 9.2 mph - -  
4:00 PM 84.2 °F 92.3 °F 75.2 °F 74% 29.77 in 6.2 mi North 8.1 mph - N/A   Mostly Cloudy
5:00 PM 80.6 °F 86.2 °F 75.2 °F 84% 29.77 in 6.2 mi North 13.8 mph - N/A   Scattered Clouds
6:00 PM 80 °F - 75 °F 79% 29.79 in - North 10.4 mph - -  
6:00 PM 80.6 °F 86.2 °F 75.2 °F 84% 29.80 in 6.2 mi North 15.0 mph - N/A   Unknown
7:00 PM 80 °F - 74 °F 79% 29.83 in - North 10.4 mph - -  
7:00 PM 80.6 °F 86.2 °F 75.2 °F 84% 29.83 in 6.2 mi North 11.5 mph - N/A   Overcast
8:00 PM 80.6 °F 86.2 °F 75.2 °F 84% 29.86 in 6.2 mi North 10.4 mph - N/A   Mostly Cloudy
9:00 PM 79 °F - 71 °F 70% 29.88 in - North 9.2 mph - -  
9:00 PM 80.6 °F 85.4 °F 73.4 °F 79% 29.89 in 6.2 mi North 12.7 mph - N/A   Scattered Clouds
10:00 PM 79 °F - 72 °F 75% 29.89 in - North 8.1 mph - -  
10:00 PM 78.8 °F - 73.4 °F 83% 29.89 in 6.2 mi NNE 8.1 mph - N/A   Scattered Clouds
11:00 PM 80.6 °F 85.4 °F 73.4 °F 79% 29.92 in 6.2 mi NNE 5.8 mph - N/A   Overcast